Tracking 19170 objects as of 23-May-2018
HD Live streaming from Space Station
objects crossing your sky now

FENGYUN 1C DEB

Track FENGYUN 1C DEB now!
10-day predictions


NORAD ID: 30007
Int'l Code: 1999-025MG
Perigee: 806.8 km
Apogee: 914.9 km
Inclination: 99.2 °
Period: 102.0 minutes
Semi major axis: 7231 km
RCS: 0.069 m2 (small)
Launch date: May 10, 1999
Source: People's Republic of China (PRC)
Launch site: Taiyaun Space Center, China (TSC)

Note: This is SATELLITE DEBRIS
aabbcc
Your satellite tracking list
Your tracking list is empty




NASA's NSSDC Master Catalog

Two Line Element Set (TLE):
1 30007U 99025MG  18142.91908847 +.00000615 +00000-0 +35446-3 0  9994
2 30007 099.1840 269.7301 0074752 222.1432 259.5393 14.11645464583011
Source of the keplerian elements: AFSPC